Location: Daouli
(14.8671°N, 3.2030°W)
Time: 02:30:55
(UTC+00:00)

GPS 2-14 Rocket1 - Pass Details

Date: 29 October 2020
Orbit: 475 x 540 km, 20.7° (Epoch: 02 December)

Event Time Altitude Azimuth Distance (km) Brightness Sun altitude
Rises 19:11:33 0° 278° (W) 2,674 7.6 -21.3°
Reaches altitude 10° 19:13:53 10° 272° (W) 1,785 6.5 -21.8°
Maximum altitude 19:17:51 43° 200° (SSW) 752 3.6 -22.8°
Enters shadow 19:18:31 40° 172° (S) 799 3.6 -23.0°
